Location: Newark
(58.8333°N, 23.5833°E)
Time: 17:13:20
(UTC+00:00)

METEOR M2 - Pass Details

Date: 13 December 2019
Orbit: 819 x 827 km, 98.5° (Epoch: 29 January)

Event Time Altitude Azimuth Distance (km) Brightness Sun altitude
Rises 05:18:18 0° 25° (NNE) 3,367 ? -12.4°
Reaches altitude 10° 05:22:16 10° 54° (NE) 2,427 ? -12.0°
Maximum altitude 05:24:30 13° 79° (E) 2,248 ? -11.7°
Drops below altitude 10° 05:26:43 10° 104° (ESE) 2,421 ? -11.5°
Sets 05:30:38 0° 133° (SE) 3,347 ? -11.0°
